ECMWFNIL_prec_cthk_162.txt.gz
RH
30 31 32 33 34 34 36 41 47 50 51 53 56 61 65 64 58 54 57 66 69 70 71 72 72 72 75 79 80 80 75 71 66 55 45 43 40 36 35 36 38 39
30 31 32 33 34 35 39 45 50 52 54 56 59 62 65 66 62 56 56 62 66 68 68 69 71 75 79 81 81 78 72 69 64 52 45 43 40 37 36 37 38 38
30 31 32 33 34 37 43 49 53 53 55 58 59 60 61 62 63 62 61 62 66 67 65 67 70 76 80 80 79 76 72 69 62 52 47 44 41 40 38 37 38 37
31 31 31 32 35 40 46 50 51 52 55 58 59 58 59 60 62 66 67 66 67 67 65 66 69 73 78 80 80 77 73 70 62 53 50 46 42 42 40 37 37 36
30 31 32 33 36 41 46 47 49 52 54 56 58 57 57 59 60 64 67 67 68 69 69 71 72 73 76 79 81 78 73 71 64 54 51 48 45 44 41 38 38 37
30 31 32 34 37 41 45 46 49 52 53 54 56 56 56 57 57 62 68 71 70 72 76 78 77 75 75 77 80 79 75 73 67 56 52 50 47 48 45 40 39 38
30 31 31 33 37 41 45 47 50 52 52 53 53 54 54 55 57 62 70 74 73 75 81 85 84 81 78 79 82 82 78 76 69 58 53 51 49 50 48 43 40 38
31 31 31 33 36 41 46 49 51 51 51 51 52 53 54 55 58 62 68 73 76 80 85 89 90 88 84 83 84 83 80 77 71 62 55 53 52 51 49 44 40 38
32 31 32 34 36 41 46 50 51 51 51 50 51 52 54 57 61 64 68 72 76 82 86 88 90 92 91 89 85 83 81 76 72 67 63 59 54 51 49 44 40 40
32 32 33 34 37 42 47 50 51 51 50 49 49 50 52 57 64 70 77 77 78 84 88 88 91 94 93 90 87 85 82 78 73 72 68 61 54 51 49 43 41 42
32 32 34 34 38 44 49 50 50 50 51 50 50 50 53 59 66 74 83 85 85 88 89 89 94 95 91 89 89 85 82 78 75 72 67 61 56 52 47 43 44 45
32 33 35 36 41 46 49 49 49 51 51 51 52 54 57 64 70 74 78 83 85 87 89 93 96 95 91 91 90 86 82 79 76 72 66 61 57 52 48 48 48 48
32 34 36 39 45 48 49 50 51 52 52 53 56 60 62 66 73 78 79 81 84 86 90 94 94 94 94 93 91 87 81 77 75 72 65 60 57 53 52 53 53 52
33 35 39 44 48 49 50 51 51 51 53 57 61 63 65 68 75 83 85 85 88 91 94 95 94 95 95 92 91 89 81 76 75 71 63 59 58 57 57 58 56 55
34 38 43 47 49 49 51 52 50 50 54 60 62 63 67 72 78 84 88 90 91 94 97 97 94 94 94 91 92 89 80 76 75 71 64 61 61 60 60 60 59 57
36 41 46 48 49 50 52 50 47 49 55 60 61 63 68 72 78 84 88 91 94 95 96 97 96 95 93 92 93 89 80 76 75 70 65 64 63 62 61 61 60 57
39 44 48 49 50 50 49 47 46 49 55 59 60 63 66 68 76 82 84 88 94 95 96 97 97 96 94 94 95 92 83 77 74 70 67 66 65 63 62 62 61 58
42 47 49 50 50 48 46 46 46 49 54 58 60 62 63 65 71 75 77 84 90 91 92 95 95 95 95 94 95 91 84 78 74 71 69 68 65 64 64 63 62 61
46 50 51 51 49 46 45 46 47 49 52 56 59 62 61 62 66 68 70 77 81 81 85 89 91 93 95 94 92 89 82 76 74 73 70 68 66 66 66 66 66 65
49 52 53 51 47 45 46 47 47 47 51 56 59 60 59 60 63 64 65 69 72 75 79 83 86 89 91 90 89 84 78 74 75 75 71 69 69 69 69 69 69 67
52 54 52 49 46 46 47 47 46 46 50 55 58 59 59 60 60 61 63 65 66 70 75 78 80 83 83 84 83 79 74 72 74 75 74 72 71 70 71 72 73 71
54 53 50 47 47 48 47 46 46 46 48 52 55 58 59 58 58 58 61 64 65 68 72 74 75 77 77 78 77 74 71 70 72 75 75 72 71 72 74 76 77 78
54 51 48 48 48 48 46 46 46 47 49 50 52 54 54 55 56 58 61 64 67 68 70 71 72 74 74 74 72 69 68 69 72 76 75 73 73 75 78 80 81 81
53 49 48 49 49 47 47 47 48 49 50 51 51 51 50 51 54 59 63 65 67 68 69 69 70 70 70 72 72 69 66 67 70 74 74 73 75 77 80 82 82 79
52 49 49 50 50 48 48 48 49 50 51 52 51 49 48 49 53 59 64 67 68 69 70 71 72 71 70 70 71 69 68 67 70 72 73 74 79 82 81 81 79 76
52 50 51 52 51 49 48 48 48 49 51 52 51 49 48 50 54 59 65 69 71 72 72 72 74 75 74 73 72 70 69 69 71 72 72 74 78 81 81 81 78 75

ECMWFNIL_prec_cthk_168.txt.gz
RH
32 31 31 32 32 33 32 31 30 32 34 34 34 37 39 41 43 44 45 47 49 54 57 61 64 62 55 49 54 73 84 83 86 86 82 84 87 86 83 73 61 53
31 31 32 32 33 33 32 30 30 32 33 34 35 37 40 40 41 43 45 47 49 53 57 60 63 63 60 54 55 70 83 86 88 86 82 84 85 82 77 68 57 51
31 31 32 33 34 32 31 30 30 31 33 34 35 38 41 41 43 45 47 50 52 55 56 58 60 61 63 66 66 71 80 87 89 86 84 87 84 78 73 66 57 52
31 32 33 33 33 31 30 30 30 31 32 34 38 42 43 43 44 45 48 51 53 55 58 63 64 63 65 74 80 80 82 85 84 83 87 90 84 77 73 67 59 54
32 33 34 33 33 31 30 29 30 31 32 35 41 43 44 46 46 48 52 55 54 57 65 70 70 69 70 76 83 83 82 83 81 79 85 90 86 81 78 73 64 56
35 35 35 34 33 31 30 29 29 31 33 38 43 44 49 54 54 54 58 59 57 57 60 64 65 66 70 75 80 80 80 84 86 82 83 87 87 85 82 79 70 57
38 38 36 34 34 33 32 30 30 30 33 39 43 45 52 56 54 55 57 58 56 54 54 59 63 64 64 69 76 79 79 83 86 86 87 87 87 87 85 82 72 57
41 40 36 35 34 35 33 31 30 30 34 39 42 46 50 54 56 57 58 57 54 53 54 59 63 63 62 65 72 78 79 81 83 86 89 89 88 88 87 83 72 57
41 39 37 36 36 35 34 32 30 31 34 37 42 48 52 55 59 57 54 54 55 57 62 65 67 66 65 64 69 75 78 79 83 86 87 88 88 88 86 80 70 58
40 38 37 36 36 36 34 32 31 31 34 37 41 48 53 54 54 52 51 54 58 63 67 69 72 74 73 72 73 78 81 82 86 89 88 88 87 88 86 78 68 59
40 39 38 37 37 36 33 32 31 32 34 37 38 42 48 53 53 53 56 59 62 66 67 70 76 79 81 82 81 83 87 88 89 90 89 89 89 89 86 77 67 59
41 40 38 38 37 35 32 31 32 33 34 36 38 40 47 53 54 54 59 62 62 64 66 70 78 84 87 88 85 85 88 89 90 91 91 92 92 89 86 80 71 63
42 41 39 37 35 33 32 32 32 33 35 36 39 44 50 53 53 55 59 60 60 62 64 68 75 84 90 91 89 88 89 90 93 93 91 92 92 90 88 84 77 68
42 41 38 37 35 32 32 33 33 34 36 37 41 47 50 50 52 56 56 56 57 60 64 68 72 80 88 94 95 93 94 95 96 94 91 90 90 91 89 86 81 74
43 40 38 36 34 32 32 33 34 35 36 38 43 47 48 47 50 54 55 55 56 58 62 66 70 75 84 92 96 96 97 98 95 94 93 91 90 91 90 87 83 77
41 38 37 37 35 33 33 34 35 36 37 40 45 48 47 46 49 53 54 54 54 56 60 62 66 74 80 86 93 96 97 96 93 92 94 93 91 91 90 88 86 81
40 37 36 37 36 34 34 34 35 37 39 43 48 48 46 46 48 50 52 53 54 54 55 56 62 72 77 79 85 90 91 92 91 90 92 93 91 90 89 88 86 84
41 38 37 39 39 36 34 35 36 38 42 47 49 47 46 46 48 49 51 53 54 53 53 54 58 68 74 74 76 79 81 84 87 88 91 92 90 90 89 88 87 85
42 39 39 40 39 36 35 35 36 40 46 50 49 46 45 46 48 50 51 53 53 52 54 55 56 62 69 71 71 72 75 78 83 87 90 89 88 88 88 87 86 86
47 44 43 42 39 36 34 34 37 43 49 51 49 46 45 46 48 49 49 51 52 54 56 56 56 58 62 66 67 69 72 74 77 83 86 85 84 86 86 86 85 84
48 46 45 43 40 37 33 34 39 46 51 51 48 45 46 47 48 47 46 49 52 54 56 56 56 58 60 63 66 68 71 72 73 76 79 79 80 82 83 83 82 79
46 45 43 40 38 36 32 35 43 49 50 49 46 46 47 48 47 44 44 48 52 54 55 55 57 58 59 62 66 68 70 71 72 74 74 74 74 76 77 79 78 75
41 40 36 33 33 32 31 36 46 50 49 46 45 46 48 47 45 42 42 47 50 52 54 55 56 57 57 59 64 67 69 70 72 74 75 73 71 70 72 74 74 71
35 34 31 29 29 31 34 42 49 50 47 45 46 48 48 46 43 42 44 48 49 50 52 54 55 57 58 59 62 64 67 69 71 73 76 77 74 70 70 72 72 70
32 31 29 29 31 35 42 49 52 50 47 48 49 49 48 45 43 44 47 48 49 50 50 52 54 56 59 62 64 65 66 67 68 70 74 77 77 74 73 74 75 73
30 30 30 32 35 39 47 52 52 50 49 50 50 50 47 46 47 48 49 49 49 48 47 48 51 54 57 61 64 67 68 68 67 69 71 74 74 73 74 77 77 76

ECMWFNIL_prec_cthk_174.txt.gz
RH
30 36 41 40 37 40 45 43 37 33 31 34 40 41 37 36 34 32 35 37 37 37 38 40 45 50 54 60 63 62 61 60 60 62 63 59 53 52 53 54 62 71
33 40 42 39 39 42 44 41 34 32 35 41 45 42 39 36 34 33 35 37 36 35 34 40 49 54 56 60 62 63 63 64 64 64 65 62 56 56 58 61 67 75
37 42 41 39 41 43 42 38 33 34 41 45 43 40 39 36 33 35 37 37 36 33 35 46 54 55 55 57 58 59 60 62 62 62 65 65 63 63 66 69 73 78
41 43 41 41 45 45 41 35 34 39 45 44 40 39 39 35 34 37 38 37 34 35 43 51 53 52 53 54 55 57 60 61 60 59 59 62 64 65 69 74 79 84
42 44 42 42 46 45 39 34 36 43 44 40 39 40 37 34 34 36 38 35 34 39 47 51 52 52 52 53 54 56 58 61 62 61 58 57 59 60 65 74 80 84
42 45 43 44 47 44 37 34 38 44 43 38 38 40 37 35 34 36 37 35 35 41 49 52 53 53 53 54 56 56 58 60 63 66 66 63 61 59 62 71 79 84
43 45 45 45 48 44 36 35 40 43 42 39 39 40 39 35 33 34 36 35 37 43 50 52 52 53 54 55 54 55 57 59 63 68 72 74 72 66 64 70 79 85
45 47 48 48 47 42 36 37 40 39 39 39 41 43 41 35 33 33 33 35 40 45 49 51 52 53 53 51 51 52 55 58 61 66 74 80 82 77 71 71 79 86
47 49 51 51 47 41 37 39 41 37 36 41 45 45 41 36 33 32 32 34 39 42 45 49 51 52 51 50 51 52 54 57 59 64 72 81 86 86 79 74 78 85
48 51 53 51 47 41 37 40 40 37 38 43 45 42 38 36 34 32 30 31 34 37 42 47 49 50 50 51 52 52 54 57 59 66 77 85 89 90 87 81 81 86
49 52 54 52 48 41 39 41 40 38 41 44 42 38 35 34 33 32 30 28 31 35 40 45 48 49 49 49 50 51 52 55 59 69 82 92 93 92 90 87 85 89
50 52 55 53 48 42 41 43 43 42 43 41 38 35 35 35 33 32 30 28 31 36 41 44 45 45 47 48 48 50 52 54 59 68 78 86 92 93 91 89 88 90
50 52 53 51 47 43 43 45 44 44 43 40 36 35 35 36 35 32 30 29 33 37 41 44 43 43 45 46 47 50 53 53 57 64 70 75 85 92 94 93 92 91
49 52 51 48 43 41 42 43 44 43 41 38 36 35 36 36 35 33 31 30 34 39 41 41 39 40 43 45 45 47 51 53 56 62 66 69 78 89 94 94 91 90
49 51 51 46 42 40 40 41 42 41 40 37 36 36 36 36 35 33 31 31 36 41 42 39 38 38 40 41 43 44 48 51 56 61 64 66 74 82 87 89 88 87
49 50 48 43 40 39 39 40 41 40 39 37 37 37 36 36 35 32 30 31 37 41 41 38 36 36 38 40 41 43 46 50 54 57 60 63 68 73 79 84 85 85
49 48 46 42 39 38 38 39 39 39 38 38 38 38 37 36 34 32 30 33 38 41 40 37 35 35 37 38 39 42 46 49 51 55 57 60 63 67 72 79 83 85
47 46 44 42 40 39 39 39 39 38 39 39 39 38 37 36 34 31 32 36 40 41 39 36 35 35 37 38 39 41 46 48 50 54 57 58 61 64 68 71 78 84
43 43 42 42 41 41 40 39 39 39 39 39 39 38 37 36 33 32 33 38 42 42 38 35 35 35 36 37 38 40 46 49 50 52 55 57 59 63 64 65 70 77
43 43 43 44 44 43 41 40 40 40 40 40 39 38 37 35 33 33 35 39 42 40 37 36 35 34 36 36 37 41 46 50 52 52 53 55 59 62 62 62 64 68
46 46 46 46 46 44 42 42 42 42 42 42 40 39 37 35 33 34 36 40 42 40 38 36 35 35 37 35 36 41 47 50 52 52 52 55 58 61 60 60 62 65
46 48 48 47 46 46 45 45 44 43 43 42 42 41 39 36 34 35 38 42 42 39 38 37 35 36 37 35 36 41 46 50 52 53 53 54 56 59 60 60 62 63
43 45 46 47 47 47 46 44 43 44 42 41 42 41 39 37 35 36 41 43 41 39 38 37 37 37 36 36 38 41 45 50 52 52 54 55 56 59 61 60 60 58
44 44 46 47 46 45 45 43 43 43 42 40 41 41 38 36 36 40 45 45 41 40 39 37 38 38 37 37 40 42 45 49 49 49 52 55 56 57 59 59 59 58
45 47 47 47 47 46 44 42 42 43 41 40 40 40 38 36 38 43 46 45 44 42 40 39 40 39 38 40 42 44 47 50 50 49 51 54 53 53 55 55 57 58
46 47 46 46 46 45 42 39 39 40 40 39 39 39 37 37 41 46 46 45 45 43 40 41 42 41 42 44 45 48 51 54 53 51 52 53 51 52 54 55 55 57

ECMWFNIL_prec_cthk_180.txt.gz
RH
47 47 44 40 38 39 38 35 31 28 27 30 35 35 33 36 37 38 42 39 32 30 30 31 32 33 32 31 31 34 40 47 50 49 48 49 49 53 60 63 62 62
48 47 43 40 40 41 37 32 28 26 28 33 37 35 33 38 41 39 37 33 30 29 30 32 33 33 31 31 32 36 43 47 48 49 50 50 49 52 58 62 63 63
48 47 43 41 42 40 33 28 27 26 29 35 36 34 34 39 43 39 33 30 30 31 32 33 33 32 31 32 33 38 44 47 48 50 51 50 49 51 55 57 59 61
48 46 43 42 41 35 28 29 31 28 30 36 37 35 36 41 43 38 32 31 32 32 33 33 32 31 32 32 34 39 44 48 50 50 52 52 50 54 59 59 60 64
48 45 44 42 36 28 26 31 34 32 35 40 40 39 40 43 42 37 33 33 33 34 33 32 31 31 31 32 34 39 45 49 49 49 52 52 52 57 63 62 65 73
49 45 42 40 32 27 28 31 34 39 45 48 46 43 42 41 38 35 33 32 33 33 32 31 30 30 29 30 33 38 44 47 48 48 49 50 52 57 61 59 61 67
48 42 39 36 30 27 30 32 37 45 51 53 50 44 40 37 36 35 33 32 33 33 32 31 30 29 27 28 32 37 41 44 46 47 47 49 49 52 58 58 57 61
44 38 36 30 27 29 31 35 42 48 52 54 51 45 39 37 37 35 33 33 34 33 32 32 31 29 27 28 32 37 40 43 45 47 49 49 45 47 56 59 56 61
37 33 33 27 27 31 33 37 43 47 50 52 52 47 42 40 37 34 34 35 36 35 34 35 33 31 29 29 32 35 40 43 45 47 48 47 46 47 53 56 55 59
32 30 31 27 29 31 33 38 42 45 49 53 53 51 46 41 36 33 35 36 37 37 37 37 35 33 31 31 31 34 39 43 44 45 45 45 46 48 49 50 52 57
29 29 30 26 27 29 32 38 40 43 49 53 56 54 49 41 34 33 36 37 37 39 38 38 37 34 32 31 32 35 40 43 43 43 43 43 44 46 47 47 49 54
28 28 30 27 27 29 32 36 39 42 46 50 54 55 51 43 36 35 37 37 38 39 38 38 37 34 32 31 33 37 40 43 43 43 42 43 44 45 46 47 48 52
28 28 29 29 28 31 33 34 37 39 41 45 50 52 52 47 39 36 36 37 39 39 37 38 37 34 32 31 34 38 40 41 43 42 41 43 44 44 45 47 49 52
29 28 28 30 29 32 35 34 34 36 40 44 49 52 52 47 39 36 36 38 40 39 38 38 38 35 32 32 35 38 40 41 42 41 41 42 42 43 45 46 49 51
29 29 30 31 31 32 34 35 36 40 44 48 51 55 55 47 39 37 38 40 41 40 39 39 38 35 33 33 36 37 39 42 42 41 41 41 41 44 46 46 48 52
29 31 33 33 31 31 33 35 39 43 46 49 53 59 58 50 42 39 40 42 41 41 41 41 39 35 33 35 37 37 38 40 41 40 40 40 41 44 46 47 48 52
30 34 36 35 33 33 34 36 41 44 47 51 56 60 61 56 48 43 42 42 41 42 42 42 40 37 35 36 37 38 38 38 37 37 37 39 41 44 45 46 48 52
33 36 38 36 34 34 34 37 41 44 48 54 58 62 64 60 51 46 45 42 41 43 43 42 41 39 36 36 37 37 35 34 35 35 36 39 42 43 44 44 45 48
35 36 37 35 33 33 33 34 38 41 45 51 58 64 67 62 52 49 50 46 41 42 43 42 42 41 37 34 33 32 32 34 37 37 37 40 41 41 43 42 40 41
34 34 35 35 36 36 35 36 39 41 43 47 54 61 64 60 52 50 51 47 41 42 44 43 43 42 38 33 30 30 32 36 38 37 38 39 40 40 41 38 35 37
33 32 33 36 37 37 37 40 44 47 50 53 57 62 62 58 53 50 48 44 41 43 44 44 44 43 38 33 30 31 35 37 37 38 38 39 40 40 40 39 38 39
34 33 34 35 35 35 38 41 45 52 58 59 61 62 60 58 57 54 47 42 41 43 45 45 45 42 38 34 31 33 36 37 37 38 39 39 40 40 41 42 42 42
35 36 36 35 34 35 37 40 45 54 60 61 61 61 60 60 58 52 44 41 42 43 46 47 45 41 38 35 33 35 37 38 38 39 39 39 39 41 43 44 43 45
37 37 36 35 35 34 34 37 44 51 55 54 54 57 61 60 54 46 41 42 44 45 48 49 44 39 37 35 35 37 38 38 40 39 39 39 40 42 44 45 45 48
38 38 36 36 36 35 36 38 41 45 46 45 48 56 60 55 47 42 42 44 46 47 50 49 42 36 35 36 38 38 38 39 40 39 38 39 40 43 46 46 46 49
38 38 38 39 38 38 39 39 39 43 46 47 52 58 57 49 44 45 46 47 48 50 50 47 41 35 35 38 39 40 39 40 40 40 39 40 41 43 46 48 48 50